Weather History for Montague, CA

Change the Weather History Date:

Saturday, January 18, 2014

  Actual Average Record
Temperature  
Mean Temperature 33 °F 35 °F  
Max Temperature 45 °F 44 °F 63 °F (1986)
Min Temperature 20 °F 26 °F 0 °F (1952)
Degree Days  
Heating Degree Days 32 30  
Month to date heating degree days 574 540  
Since 1 July heating degree days 3052 2773  
Cooling Degree Days 0 0  
Month to date cooling degree days 0 0  
Year to date cooling degree days 0 0  
Moisture  
Dew Point 24 °F    
Average Humidity 86    
Maximum Humidity 92    
Minimum Humidity 57    
Precipitation  
Precipitation 0.00 in 0.05 in 1.07 in (1951)
Month to date precipitation 0.11 1.62  
Year to date precipitation 0.11 1.62  
Sea Level Pressure  
Sea Level Pressure 30.36 in    
Wind  
Wind Speed 1 mph (SW)    
Max Wind Speed 8 mph    
Max Gust Speed 9 mph    
Visibility 3 miles    
Events Fog    
T = Trace of Precipitation, MM = Missing Value Source: NWS Daily Summary

Daily Weather History Graph

Daily Weather History Graph

Search for Another Location

Airport:

Trip Planner

Search our weather history database for the weather conditions in past years. The results will help you decide how hot, cold, wet, or windy it might be!

Date:

Astronomy

Jan. 18, 2014 Rise Set
Actual Time 7:33 AM PST 5:07 PM PST
Civil Twilight 7:02 AM PST 5:38 PM PST
Nautical Twilight 6:28 AM PST 6:12 PM PST
Astronomical Twilight 5:55 AM PST 6:45 PM PST
Moon 7:58 PM PST (1/18) 8:33 AM PST (1/18)
Length of Visible Light 10h 35m
Length of Day
9h 34m
Waning Gibbous, 94% of the Moon is Illuminated
Jan 18
Waning Gibbous
Jan 23
Last Quarter
Jan 30
New
Feb 6
First Quarter
Feb 14
Full

Hourly Weather History & Observations

Time (PST) Temp. Windchill Dew Point Humidity Pressure Visibility Wind Dir Wind Speed Gust Speed Precip Events Conditions
12:12 AM 21.0 °F - 18.0 °F 88% 30.32 in 0.2 mi Calm Calm - N/A Fog Light Freezing Fog
12:53 AM 21.0 °F - 17.1 °F 85% 30.44 in 0.2 mi Calm Calm - N/A Fog Light Freezing Fog
1:34 AM 21.0 °F - 18.0 °F 88% 30.32 in 0.2 mi Calm Calm - N/A Fog Light Freezing Fog
1:53 AM 21.9 °F - 18.0 °F 85% 30.43 in 0.2 mi Calm Calm - N/A Fog Light Freezing Fog
2:50 AM 23.0 °F - 19.4 °F 86% 30.32 in 0.2 mi Calm Calm - N/A Fog Light Freezing Fog
2:53 AM 23.0 °F - 19.9 °F 88% 30.42 in 0.2 mi Calm Calm - N/A Fog Light Freezing Fog
3:26 AM 23.0 °F - 19.0 °F 85% 30.32 in 0.2 mi Calm Calm - N/A Fog Light Freezing Fog
3:53 AM 23.0 °F - 19.9 °F 88% 30.42 in 0.2 mi Calm Calm - N/A Fog Light Freezing Fog
4:21 AM 23.0 °F 14.7 °F 19.0 °F 85% 30.32 in 0.2 mi SSW 6.9 mph - N/A Fog Light Freezing Fog
4:53 AM 23.0 °F 15.8 °F 19.9 °F 88% 30.43 in 0.2 mi SSW 5.8 mph - N/A Fog Light Freezing Fog
5:26 AM 23.0 °F 17.0 °F 19.9 °F 88% 30.33 in 0.2 mi WSW 4.6 mph - N/A Fog Light Freezing Fog
5:53 AM 24.1 °F 19.7 °F 19.9 °F 84% 30.44 in 0.2 mi SW 3.5 mph - N/A Fog Light Freezing Fog
6:53 AM 23.0 °F - 19.0 °F 85% 30.45 in 0.5 mi Calm Calm - N/A Fog Light Freezing Fog
7:03 AM 23.0 °F 18.4 °F 19.9 °F 88% 30.33 in 0.2 mi NE 3.5 mph - N/A Fog Light Freezing Fog
7:37 AM 23.0 °F 18.4 °F 19.9 °F 88% 30.34 in 0.2 mi North 3.5 mph - N/A Fog Light Freezing Fog
7:53 AM 23.0 °F - 19.9 °F 88% 30.45 in 0.2 mi Calm Calm - N/A Fog Light Freezing Fog
8:00 AM 24.1 °F 19.7 °F 19.9 °F 84% 30.34 in 0.2 mi North 3.5 mph - N/A Fog Light Freezing Fog
8:53 AM 24.1 °F - 21.0 °F 88% 30.48 in 0.2 mi Calm Calm - N/A Fog Light Freezing Fog
9:03 AM 24.1 °F 19.7 °F 21.9 °F 91% 30.36 in 0.2 mi South 3.5 mph - N/A Fog Light Freezing Fog
9:53 AM 25.0 °F - 23.0 °F 92% 30.49 in 0.2 mi Calm Calm - N/A Fog Light Freezing Fog
10:53 AM 28.0 °F - 25.0 °F 88% 30.48 in 0.2 mi Calm Calm - N/A Fog Light Freezing Fog
11:53 AM 28.9 °F 25.2 °F 27.0 °F 92% 30.44 in 0.2 mi SW 3.5 mph - N/A Fog Light Freezing Fog
12:19 PM 30.9 °F 26.2 °F 28.0 °F 89% 30.31 in 0.5 mi SW 4.6 mph - N/A Fog Light Freezing Fog
12:36 PM 30.9 °F 27.5 °F 30.0 °F 96% 30.30 in 1.0 mi SSW 3.5 mph - N/A   Overcast
12:48 PM 32.0 °F 26.4 °F 28.4 °F 87% 30.29 in 0.5 mi SW 5.8 mph - N/A Fog Fog
12:53 PM 32.0 °F 27.5 °F 30.0 °F 92% 30.39 in 0.8 mi WSW 4.6 mph - N/A   Overcast
1:01 PM 32.0 °F 28.7 °F 30.0 °F 92% 30.28 in 1.0 mi SW 3.5 mph - N/A   Overcast
1:31 PM 34.0 °F - 32.0 °F 92% 30.27 in 2.5 mi Calm Calm - N/A   Overcast
1:38 PM 33.1 °F - 32.0 °F 96% 30.26 in 5.0 mi Calm Calm - N/A   Mostly Cloudy
1:49 PM 35.6 °F 32.8 °F 33.8 °F 93% 30.26 in 7.0 mi WSW 3.5 mph - N/A   Scattered Clouds
1:53 PM 36.0 °F - 33.1 °F 89% 30.35 in 8.0 mi Calm Calm - N/A   Partly Cloudy
2:53 PM 42.1 °F 40.2 °F 30.9 °F 65% 30.31 in 10.0 mi SSW 3.5 mph - N/A   Clear
3:53 PM 44.1 °F - 30.0 °F 58% 30.30 in 10.0 mi Calm Calm - N/A   Clear
4:53 PM 42.1 °F - 28.9 °F 60% 30.30 in 10.0 mi Calm Calm - N/A   Clear
5:53 PM 30.9 °F 26.2 °F 24.1 °F 76% 30.31 in 10.0 mi SSE 4.6 mph - N/A   Clear
6:53 PM 28.9 °F - 24.1 °F 82% 30.32 in 10.0 mi Calm Calm - N/A   Clear
7:53 PM 28.9 °F 23.9 °F 24.1 °F 82% 30.32 in 10.0 mi NNE 4.6 mph - N/A   Clear
8:53 PM 27.0 °F - 21.9 °F 81% 30.32 in 10.0 mi Calm Calm - N/A   Clear
9:53 PM 26.1 °F - 21.9 °F 84% 30.34 in 10.0 mi Calm Calm - N/A   Clear
10:53 PM 21.0 °F - 18.0 °F 88% 30.34 in 8.0 mi Calm Calm - N/A   Clear
11:53 PM 25.0 °F 20.7 °F 21.9 °F 88% 30.33 in 7.0 mi NNE 3.5 mph - N/A   Clear